Location: Chatou
(48.8898°N, 2.1586°E)
Time: 01:04:48
(UTC+00:00)

STRAND 1 - Pass Details

Date: 11 December 2023
Orbit: 766 x 778 km, 98.4° (Epoch: 03 March)

Event Time Altitude Azimuth Distance (km) Brightness Sun altitude
Rises 04:03:23 0° 123° (ESE) 3,234 ? -33.5°
Reaches altitude 10° 04:06:07 10° 109° (ESE) 2,310 ? -33.1°
Maximum altitude 04:09:58 22° 59° (ENE) 1,628 ? -32.4°
Drops below altitude 10° 04:13:49 10° 10° (N) 2,317 ? -31.8°
Enters shadow 04:13:50 10° 10° (N) 2,322 ? -31.8°
